Location: ČR
(50.0000°N, 15.0000°E)
Time: 04:11:21
(UTC+01:00)

STARS - Visible Passes

Search period start: 17 March 2026 00:00
Search period end: 27 March 2026 00:00
Orbit: 575 x 589 km, 98.1° (Epoch: 16 March)

Date Brightness Start Highest point End Pass type
(mag) Time Alt. Az. Time Alt. Az. Time Alt. Az.
17 Mar ? 01:50:39 10° NNE 01:51:13 14° NNE 01:51:13 14° NNE visible
17 Mar ? 03:26:41 10° NNW 03:27:36 14° NNW 03:27:36 14° NNW visible
18 Mar ? 01:56:14 10° NNE 01:57:01 15° NNE 01:57:01 15° NNE visible
18 Mar ? 03:32:27 10° NNW 03:33:24 14° NNW 03:33:24 14° NNW visible
19 Mar ? 02:01:50 10° NNE 02:02:49 17° NNE 02:02:49 17° NNE visible
19 Mar ? 03:38:14 10° NNW 03:39:12 13° NNW 03:39:12 13° NNW visible
20 Mar ? 02:07:25 10° NNE 02:08:36 19° NNE 02:08:36 19° NNE visible
20 Mar ? 03:44:02 10° NNW 03:45:00 13° NW 03:45:00 13° NW visible
21 Mar ? 02:13:01 10° NNE 02:14:23 21° NNE 02:14:23 21° NNE visible
21 Mar ? 03:49:54 10° NNW 03:50:46 12° NW 03:50:46 12° NW visible
22 Mar ? 02:18:36 10° NNE 02:20:10 22° NNE 02:20:10 22° NNE visible
22 Mar ? 03:55:49 10° NNW 03:56:33 11° NW 03:56:33 11° NW visible
23 Mar ? 02:24:12 10° NNE 02:25:56 24° N 02:25:56 24° N visible
23 Mar ? 04:01:55 10° NW 04:02:19 10° NW 04:02:19 10° NW visible
24 Mar ? 02:29:48 10° N 02:31:42 26° N 02:31:42 26° N visible
25 Mar ? 02:35:24 10° N 02:37:28 28° N 02:37:28 28° N visible
26 Mar ? 01:06:32 10° NE 01:06:50 11° NE 01:06:50 11° NE visible
26 Mar ? 02:41:00 10° N 02:43:13 29° N 02:43:13 29° N visible
